K6OUA-11 Weather Reports


time (UTC)temp
C
wind
direction
speed
KPH
gust
KPH
rain 1hr
cm
rain 24hr
cm
rain mn
cm
humidity
%
barometer
mb
20260504232231 17 257 19.3 30.6 0.00 0.00 0.00 59
20260504232030 17 257 12.9 30.6 0.00 0.00 0.00 58
20260504231828 17 261 12.9 30.6 0.00 0.00 0.00 58
20260504231626 17 261 11.3 25.7 0.00 0.00 0.00 59
20260504231422 17 264 19.3 25.7 0.00 0.00 0.00 58
20260504231222 17 257 12.9 22.5 0.00 0.00 0.00 58
20260504231020 17 243 17.7 22.5 0.00 0.00 0.00 58
20260504230818 18 255 14.5 16.1 0.00 0.00 0.00 57
20260504230614 18 161 3.2 16.1 0.00 0.00 0.00 58
20260504230414 18 258 8.0 16.1 0.00 0.00 0.00 57
20260504230212 18 217 1.6 27.4 0.00 0.00 0.00 57
20260504230010 18 209 3.2 27.4 0.00 0.00 0.00 58
20260504225808 18 250 11.3 27.4 0.00 0.00 0.00 57
20260504225607 18 226 16.1 27.4 0.00 0.00 0.00 56
20260504225405 18 260 6.4 27.4 0.00 0.00 0.00 56
20260504225203 18 215 3.2 27.4 0.00 0.00 0.00 57
20260504225001 18 354 3.2 27.4 0.00 0.00 0.00 57
20260504224759 18 261 16.1 19.3 0.00 0.00 0.00 58
20260504224558 18 260 4.8 19.3 0.00 0.00 0.00 57
20260504224356 18 303 4.8 19.3 0.00 0.00 0.00 57
20260504224154 18 246 11.3 14.5 0.00 0.00 0.00 57
20260504223548 18 236 3.2 16.1 0.00 0.00 0.00 58
20260504223346 18 299 4.8 16.1 0.00 0.00 0.00 56
20260504223144 18 184 9.7 20.9 0.00 0.00 0.00 57
20260504222940 19 254 3.2 20.9 0.00 0.00 0.00 54
20260504222740 18 253 9.7 19.3 0.00 0.00 0.00 56
20260504222538 19 278 8.0 19.3 0.00 0.00 0.00 56
20260504222336 19 289 12.9 19.3 0.00 0.00 0.00 55
20260504222134 19 229 6.4 29.0 0.00 0.00 0.00 54
20260504221731 18 313 1.6 25.7 0.00 0.00 0.00 55
20260504221529 18 247 14.5 25.7 0.00 0.00 0.00 56
20260504221327 18 258 11.3 25.7 0.00 0.00 0.00 56
20260504221127 18 157 4.8 25.7 0.00 0.00 0.00 55
20260504220721 18 243 22.5 40.2 0.00 0.00 0.00 55
20260504220519 18 261 6.4 40.2 0.00 0.00 0.00 53
20260504220318 18 279 27.4 29.0 0.00 0.00 0.00 55
20260504215914 18 250 22.5 29.0 0.00 0.00 0.00 53
20260504215711 19 262 8.0 35.4 0.00 0.00 0.00 52
20260504215509 18 281 9.7 35.4 0.00 0.00 0.00 53
20260504215308 18 258 20.9 30.6 0.00 0.00 0.00 54
20260504215106 18 240 8.0 30.6 0.00 0.00 0.00 56
20260504214904 18 255 27.4 30.6 0.00 0.00 0.00 54
20260504214702 18 254 30.6 35.4 0.00 0.00 0.00 54
20260504214500 18 264 22.5 35.4 0.00 0.00 0.00 53
20260504214258 18 262 22.5 35.4 0.00 0.00 0.00 53
20260504214056 18 265 22.5 35.4 0.00 0.00 0.00 52
20260504213855 18 222 16.1 35.4 0.00 0.00 0.00 56
20260504213653 18 247 19.3 38.6 0.00 0.00 0.00 55
20260504213249 18 243 20.9 33.8 0.00 0.00 0.00 55
20260504213047 18 264 6.4 33.8 0.00 0.00 0.00 53
20260504212845 18 250 14.5 33.8 0.00 0.00 0.00 53
20260504212643 18 279 22.5 33.8 0.00 0.00 0.00 53
20260504212441 18 267 29.0 33.8 0.00 0.00 0.00 52
20260504212239 18 247 14.5 27.4 0.00 0.00 0.00 51
20260504212038 18 257 22.5 27.4 0.00 0.00 0.00 51
20260504211836 19 264 12.9 27.4 0.00 0.00 0.00 50
20260504211432 18 247 20.9 33.8 0.00 0.00 0.00 50
20260504211230 18 291 20.9 40.2 0.00 0.00 0.00 50
20260504211028 19 248 29.0 40.2 0.00 0.00 0.00 52
20260504210826 18 268 25.7 40.2 0.00 0.00 0.00 52
20260504210624 18 258 20.9 33.8 0.00 0.00 0.00 50
20260504210423 18 292 11.3 33.8 0.00 0.00 0.00 50
20260504210221 18 247 19.3 37.0 0.00 0.00 0.00 51
20260504210019 19 243 14.5 37.0 0.00 0.00 0.00 50
20260504205817 18 246 22.5 33.8 0.00 0.00 0.00 50
20260504205413 18 261 24.1 33.8 0.00 0.00 0.00 48
20260504205009 19 254 16.1 35.4 0.00 0.00 0.00 49
20260504204808 19 260 27.4 29.0 0.00 0.00 0.00 49
20260504204606 19 272 14.5 29.0 0.00 0.00 0.00 48
20260504204402 19 271 12.9 29.0 0.00 0.00 0.00 49
20260504204203 19 254 22.5 32.2 0.00 0.00 0.00 51
20260504203352 19 272 27.4 30.6 0.00 0.00 0.00 44
20260504203152 19 255 20.9 32.2 0.00 0.00 0.00 45
20260504202950 19 272 12.9 32.2 0.00 0.00 0.00 48
20260504202748 19 194 1.6 30.6 0.00 0.00 0.00 49
20260504202547 19 243 12.9 30.6 0.00 0.00 0.00 48
20260504202345 19 254 20.9 30.6 0.00 0.00 0.00 48
20260504202143 18 248 14.5 35.4 0.00 0.00 0.00 49
20260504201941 18 281 14.5 35.4 0.00 0.00 0.00 48
20260504201738 18 267 14.5 29.0 0.00 0.00 0.00 48
20260504201540 18 284 17.7 29.0 0.00 0.00 0.00 46
20260504201133 18 271 12.9 30.6 0.00 0.00 0.00 48
20260504200931 18 260 16.1 30.6 0.00 0.00 0.00 51
20260504200729 18 267 24.1 22.5 0.00 0.00 0.00 50
20260504200527 19 262 20.9 22.5 0.00 0.00 0.00 48
20260504200325 19 282 12.9 22.5 0.00 0.00 0.00 49
20260504200123 18 267 17.7 33.8 0.00 0.00 0.00 50
20260504195921 18 255 12.9 33.8 0.00 0.00 0.00 49
20260504195720 18 255 17.7 25.7 0.00 0.00 0.00 50
20260504195517 18 262 19.3 25.7 0.00 0.00 0.00 49
20260504195316 19 264 19.3 27.4 0.00 0.00 0.00 50
20260504194710 19 274 11.3 20.9 0.00 0.00 0.00 47
20260504194509 19 268 17.7 20.9 0.00 0.00 0.00 48
20260504194305 19 247 9.7 24.1 0.00 0.00 0.00 49
20260504194105 19 185 1.6 24.1 0.00 0.00 0.00 49
20260504193903 19 267 6.4 24.1 0.00 0.00 0.00 52
20260504193701 18 258 16.1 22.5 0.00 0.00 0.00 50
20260504193457 18 246 20.9 22.5 0.00 0.00 0.00 49
20260504193257 19 258 20.9 22.5 0.00 0.00 0.00 49
20260504193053 18 260 11.3 22.5 0.00 0.00 0.00 49
20260504192853 18 278 9.7 22.5 0.00 0.00 0.00 49
20260504192652 18 275 14.5 32.2 0.00 0.00 0.00 49
20260504192248 18 270 22.5 29.0 0.00 0.00 0.00 49
20260504192046 18 262 16.1 29.0 0.00 0.00 0.00 50
20260504191846 18 262 12.9 29.0 0.00 0.00 0.00 51
20260504191440 18 281 29.0 25.7 0.00 0.00 0.00 51
20260504191240 18 278 17.7 29.0 0.00 0.00 0.00 49
20260504191036 18 250 9.7 29.0 0.00 0.00 0.00 50
20260504190834 18 246 17.7 29.0 0.00 0.00 0.00 50
20260504190632 18 254 19.3 29.0 0.00 0.00 0.00 50
20260504190229 18 247 19.3 19.3 0.00 0.00 0.00 49
20260504190027 18 271 14.5 19.3 0.00 0.00 0.00 49
20260504185825 18 282 14.5 19.3 0.00 0.00 0.00 53
20260504185623 18 272 9.7 22.5 0.00 0.00 0.00 52
20260504185421 18 272 12.9 22.5 0.00 0.00 0.00 53
20260504185219 18 306 1.6 20.9 0.00 0.00 0.00 53
20260504184816 18 261 8.0 12.9 0.00 0.00 0.00 50
20260504184614 18 233 1.6 12.9 0.00 0.00 0.00 52
20260504184410 18 239 3.2 12.9 0.00 0.00 0.00 51
20260504184210 18 258 3.2 16.1 0.00 0.00 0.00 53
20260504184006 18 187 4.8 16.1 0.00 0.00 0.00 53
20260504183804 18 188 12.9 17.7 0.00 0.00 0.00 52
20260504183604 18 277 3.2 17.7 0.00 0.00 0.00 53
20260504183402 18 210 1.6 17.7 0.00 0.00 0.00 55
20260504183200 18 225 8.0 19.3 0.00 0.00 0.00 57
20260504182958 18 22 1.6 19.3 0.00 0.00 0.00 55
20260504182756 17 260 12.9 19.3 0.00 0.00 0.00 55
20260504182554 17 206 16.1 19.3 0.00 0.00 0.00 56
20260504182353 17 271 12.9 19.3 0.00 0.00 0.00 52
20260504182149 17 262 9.7 19.3 0.00 0.00 0.00 52
20260504181949 18 296 3.2 19.3 0.00 0.00 0.00 55
20260504181745 18 222 11.3 14.5 0.00 0.00 0.00 54
20260504181545 18 262 9.7 14.5 0.00 0.00 0.00 53
20260504181343 18 265 11.3 14.5 0.00 0.00 0.00 54
20260504181141 18 261 3.2 16.1 0.00 0.00 0.00 56
20260504180942 18 202 1.6 16.1 0.00 0.00 0.00 55
20260504180737 17 182 9.7 22.5 0.00 0.00 0.00 57
20260504180535 17 260 6.4 22.5 0.00 0.00 0.00 57
20260504180332 17 167 4.8 22.5 0.00 0.00 0.00 59
20260504180132 17 257 17.7 25.7 0.00 0.00 0.00 57
20260504175934 17 282 8.0 25.7 0.00 0.00 0.00 58
20260504175726 17 271 19.3 17.7 0.00 0.00 0.00 56
20260504175526 17 267 24.1 17.7 0.00 0.00 0.00 57
20260504175324 17 268 16.1 17.7 0.00 0.00 0.00 59
20260504175122 17 270 14.5 25.7 0.00 0.00 0.00 58
20260504174920 17 257 12.9 25.7 0.00 0.00 0.00 55
20260504174718 17 261 22.5 17.7 0.00 0.00 0.00 54
20260504174517 17 258 8.0 17.7 0.00 0.00 0.00 55
20260504174113 18 296 1.6 11.3 0.00 0.00 0.00 56
20260504173911 17 230 0.0 11.3 0.00 0.00 0.00 57
20260504173709 17 227 6.4 20.9 0.00 0.00 0.00 58
20260504173507 17 281 1.6 20.9 0.00 0.00 0.00 58
20260504173305 17 288 4.8 19.3 0.00 0.00 0.00 61
20260504173103 17 203 3.2 19.3 0.00 0.00 0.00 60
20260504172901 17 289 4.8 19.3 0.00 0.00 0.00 61
20260504172700 17 251 3.2 16.1 0.00 0.00 0.00 58
20260504172458 17 282 9.7 16.1 0.00 0.00 0.00 59
20260504172256 17 254 11.3 16.1 0.00 0.00 0.00 61
20260504172052 17 209 6.4 16.1 0.00 0.00 0.00 62
20260504171852 17 199 3.2 16.1 0.00 0.00 0.00 61
20260504171650 17 275 3.2 19.3 0.00 0.00 0.00 63
20260504171448 16 258 12.9 19.3 0.00 0.00 0.00 63
20260504171246 16 220 8.0 20.9 0.00 0.00 0.00 64
20260504171045 16 286 12.9 20.9 0.00 0.00 0.00 65
20260504170439 16 264 11.3 22.5 0.00 0.00 0.00 63
20260504170237 16 203 1.6 17.7 0.00 0.00 0.00 63
20260504160340 16 80 0.0 9.7 0.00 0.00 0.00 67
20260504160139 16 150 4.8 12.9 0.00 0.00 0.00 67
20260504151052 14 73 3.2 4.8 0.00 0.00 0.00 78
20260504150849 14 127 3.2 4.8 0.00 0.00 0.00 78
20260504150648 14 109 4.8 9.7 0.00 0.00 0.00 79
20260504150244 13 115 4.8 3.2 0.00 0.00 0.00 78
20260504141157 12 147 0.0 0.0 0.00 0.00 0.00 91
20260504140955 11 147 0.0 0.0 0.00 0.00 0.00 91
20260504140753 11 147 0.0 0.0 0.00 0.00 0.00 91
20260504140351 11 147 0.0 0.0 0.00 0.00 0.00 91
20260504130656 11 74 0.0 0.0 0.00 0.00 0.00 90
20260504130454 11 74 0.0 0.0 0.00 0.00 0.00 90
20260504130252 11 74 0.0 0.0 0.00 0.00 0.00 90
20260504120155 12 208 0.0 0.0 0.00 0.00 0.00 89
20260504110703 12 226 0.0 0.0 0.00 0.00 0.00 89
20260504110459 12 226 0.0 0.0 0.00 0.00 0.00 89
20260504110259 12 226 0.0 0.0 0.00 0.00 0.00 88
20260504100606 13 133 0.0 4.8 0.00 0.00 0.00 87
20260504100404 13 212 0.0 4.8 0.00 0.00 0.00 87
20260504100202 13 178 0.0 0.0 0.00 0.00 0.00 87
20260504081823 13 260 0.0 0.0 0.00 0.00 0.00 85
20260504081624 13 260 0.0 0.0 0.00 0.00 0.00 85
20260504081421 13 260 0.0 0.0 0.00 0.00 0.00 85
20260504081219 13 260 0.0 0.0 0.00 0.00 0.00 85
20260504081017 13 260 0.0 0.0 0.00 0.00 0.00 85
20260504080815 13 260 0.0 0.0 0.00 0.00 0.00 85
20260504080614 13 260 0.0 0.0 0.00 0.00 0.00 85
20260504080412 13 260 0.0 0.0 0.00 0.00 0.00 85
20260504080210 13 260 0.0 0.0 0.00 0.00 0.00 86
20260504060217 13 260 0.0 0.0 0.00 0.00 0.00 84
20260504050725 13 240 0.0 6.4 0.00 0.00 0.00 83
20260504050322 13 272 1.6 8.0 0.00 0.00 0.00 83
20260504050121 13 274 1.6 8.0 0.00 0.00 0.00 83
20260504045918 13 272 4.8 8.0 0.00 0.00 0.00 83
20260504045716 13 275 6.4 8.0 0.00 0.00 0.00 83
20260504045514 13 278 4.8 8.0 0.00 0.00 0.00 83
20260504045312 13 279 4.8 3.2 0.00 0.00 0.00 82
20260504045110 13 240 0.0 3.2 0.00 0.00 0.00 82
20260504044909 13 260 0.0 3.2 0.00 0.00 0.00 82
20260504044707 13 247 0.0 3.2 0.00 0.00 0.00 82
20260504044505 13 244 0.0 3.2 0.00 0.00 0.00 82
20260504044304 13 260 1.6 0.0 0.00 0.00 0.00 82
20260504044102 13 254 0.0 0.0 0.00 0.00 0.00 82
20260504043859 13 254 0.0 0.0 0.00 0.00 0.00 82
20260504043253 13 254 0.0 0.0 0.00 0.00 0.00 82
20260504043051 13 254 0.0 0.0 0.00 0.00 0.00 82
20260504042850 13 254 0.0 0.0 0.00 0.00 0.00 82
20260504042446 13 254 0.0 8.0 0.00 0.00 0.00 82
20260504042244 13 254 0.0 8.0 0.00 0.00 0.00 82
20260504041840 13 293 6.4 8.0 0.00 0.00 0.00 82
20260504041638 13 275 1.6 8.0 0.00 0.00 0.00 82
20260504041436 13 220 0.0 8.0 0.00 0.00 0.00 82
20260504041234 13 217 0.0 4.8 0.00 0.00 0.00 82
20260504041032 13 257 1.6 4.8 0.00 0.00 0.00 82
20260504040830 13 223 0.0 4.8 0.00 0.00 0.00 82
20260504040628 13 278 3.2 0.0 0.00 0.00 0.00 83
20260504040427 13 267 0.0 0.0 0.00 0.00 0.00 82
20260504040023 13 248 0.0 0.0 0.00 0.00 0.00 82
20260504035821 14 248 0.0 0.0 0.00 0.00 0.00 82
20260504035013 14 248 0.0 1.6 0.00 0.00 0.00 82
20260504034812 14 248 0.0 3.2 0.00 0.00 0.00 82
20260504034610 14 227 0.0 3.2 0.00 0.00 0.00 82
20260504034408 14 227 0.0 3.2 0.00 0.00 0.00 82
20260504034004 14 219 1.6 0.0 0.00 0.00 0.00 82
20260504033802 14 248 0.0 3.2 0.00 0.00 0.00 82
20260504033600 14 248 0.0 3.2 0.00 0.00 0.00 81
20260504033358 14 248 0.0 3.2 0.00 0.00 0.00 82
20260504033156 14 267 1.6 3.2 0.00 0.00 0.00 82
20260504032954 14 260 0.0 3.2 0.00 0.00 0.00 82
20260504032752 14 272 1.6 4.8 0.00 0.00 0.00 82
20260504032550 14 274 3.2 4.8 0.00 0.00 0.00 81
20260504032349 14 225 0.0 4.8 0.00 0.00 0.00 81
20260504032147 14 225 0.0 0.0 0.00 0.00 0.00 81
20260504031945 14 225 0.0 0.0 0.00 0.00 0.00 81
20260504031741 14 227 0.0 0.0 0.00 0.00 0.00 81
20260504031541 14 227 0.0 0.0 0.00 0.00 0.00 81
20260504031339 14 227 0.0 0.0 0.00 0.00 0.00 81
20260504031137 14 227 0.0 4.8 0.00 0.00 0.00 81
20260504030935 14 227 0.0 4.8 0.00 0.00 0.00 81
20260504030733 14 227 0.0 12.9 0.00 0.00 0.00 81
20260504030530 14 274 3.2 12.9 0.00 0.00 0.00 81
20260504030329 14 277 1.6 12.9 0.00 0.00 0.00 81
20260504030128 14 268 6.4 11.3 0.00 0.00 0.00 81
20260504025924 14 279 9.7 11.3 0.00 0.00 0.00 81
20260504025723 14 271 6.4 6.4 0.00 0.00 0.00 81
20260504025522 14 281 8.0 6.4 0.00 0.00 0.00 81
20260504025320 14 291 1.6 11.3 0.00 0.00 0.00 81
20260504024916 14 302 1.6 11.3 0.00 0.00 0.00 81
20260504024714 14 255 1.6 11.3 0.00 0.00 0.00 81
20260504024512 14 260 0.0 11.3 0.00 0.00 0.00 81
20260504024310 14 239 0.0 11.3 0.00 0.00 0.00 80
20260504024109 14 292 1.6 11.3 0.00 0.00 0.00 80
20260504023907 14 271 11.3 11.3 0.00 0.00 0.00 80
20260504023705 14 277 3.2 16.1 0.00 0.00 0.00 80
20260504023501 14 303 6.4 16.1 0.00 0.00 0.00 80
20260504023301 14 277 9.7 16.1 0.00 0.00 0.00 80
20260504023059 14 264 8.0 16.1 0.00 0.00 0.00 80
20260504022857 14 264 12.9 16.1 0.00 0.00 0.00 80
20260504022655 14 247 8.0 16.1 0.00 0.00 0.00 80
20260504022453 14 270 9.7 16.1 0.00 0.00 0.00 80
20260504022049 14 253 8.0 9.7 0.00 0.00 0.00 80
20260504021848 14 285 6.4 9.7 0.00 0.00 0.00 80
20260504021646 15 203 0.0 14.5 0.00 0.00 0.00 80
20260504021442 15 272 4.8 14.5 0.00 0.00 0.00 80
20260504020636 14 234 8.0 20.9 0.00 0.00 0.00 80
20260504020232 14 257 11.3 14.5 0.00 0.00 0.00 80
20260504015627 15 270 9.7 19.3 0.00 0.00 0.00 78
20260504015423 15 274 9.7 19.3 0.00 0.00 0.00 78
20260504015223 15 255 11.3 8.0 0.00 0.00 0.00 78
20260504015021 15 264 1.6 8.0 0.00 0.00 0.00 78
20260504014819 15 202 0.0 11.3 0.00 0.00 0.00 77
20260504014617 15 271 3.2 11.3 0.00 0.00 0.00 77
20260504014415 15 278 4.8 11.3 0.00 0.00 0.00 77
20260504014213 15 268 6.4 19.3 0.00 0.00 0.00 77
20260504014011 15 209 3.2 19.3 0.00 0.00 0.00 76
20260504013810 15 264 12.9 20.9 0.00 0.00 0.00 76
20260504013607 15 257 6.4 20.9 0.00 0.00 0.00 76
20260504013406 15 255 14.5 20.9 0.00 0.00 0.00 75
20260504013000 15 267 14.5 16.1 0.00 0.00 0.00 73
20260504012558 15 225 1.6 16.1 0.00 0.00 0.00 72
20260504012356 15 250 4.8 16.1 0.00 0.00 0.00 71
20260504012155 15 260 1.6 16.1 0.00 0.00 0.00 70
20260504011951 15 279 6.4 16.1 0.00 0.00 0.00 70
20260504011751 15 222 3.2 19.3 0.00 0.00 0.00 69
20260504011549 15 268 4.8 19.3 0.00 0.00 0.00 69
20260504011347 15 248 14.5 19.3 0.00 0.00 0.00 69
20260504011145 15 251 9.7 16.1 0.00 0.00 0.00 69
20260504010941 15 250 12.9 16.1 0.00 0.00 0.00 68
20260504010741 16 296 6.4 19.3 0.00 0.00 0.00 68
20260504010539 16 293 14.5 19.3 0.00 0.00 0.00 67
20260504010337 16 26 1.6 19.3 0.00 0.00 0.00 67
20260504010135 16 246 1.6 16.1 0.00 0.00 0.00 67
20260504005933 16 246 17.7 16.1 0.00 0.00 0.00 67
20260504005732 16 275 8.0 16.1 0.00 0.00 0.00 67
20260504005530 16 284 4.8 16.1 0.00 0.00 0.00 67
20260504005328 16 267 8.0 16.1 0.00 0.00 0.00 67
20260504005126 16 254 11.3 16.1 0.00 0.00 0.00 67
20260504004924 16 282 4.8 16.1 0.00 0.00 0.00 67
20260504004722 16 243 6.4 16.1 0.00 0.00 0.00 67
20260504004521 16 275 3.2 16.1 0.00 0.00 0.00 67
20260504004318 16 282 3.2 16.1 0.00 0.00 0.00 67
20260504004116 16 257 9.7 16.1 0.00 0.00 0.00 66
20260504003915 16 261 8.0 16.1 0.00 0.00 0.00 66
20260504003712 17 295 3.2 14.5 0.00 0.00 0.00 67
20260504003509 17 267 9.7 14.5 0.00 0.00 0.00 66
20260504003309 17 243 1.6 12.9 0.00 0.00 0.00 66
20260504003107 17 274 6.4 12.9 0.00 0.00 0.00 66
20260504002905 17 274 6.4 12.9 0.00 0.00 0.00 65
20260504002703 17 278 8.0 12.9 0.00 0.00 0.00 66
20260504002501 17 264 3.2 12.9 0.00 0.00 0.00 66
20260504002259 17 240 4.8 11.3 0.00 0.00 0.00 65
20260504002057 17 272 1.6 11.3 0.00 0.00 0.00 65
20260504001653 17 289 8.0 12.9 0.00 0.00 0.00 65
20260504001452 17 282 1.6 12.9 0.00 0.00 0.00 65
20260504001248 17 274 6.4 16.1 0.00 0.00 0.00 65
20260504001048 17 274 8.0 16.1 0.00 0.00 0.00 64
20260504000846 17 271 8.0 16.1 0.00 0.00 0.00 64
20260504000644 17 265 4.8 12.9 0.00 0.00 0.00 64
20260504000442 17 270 6.4 12.9 0.00 0.00 0.00 64
20260504000241 17 288 6.4 12.9 0.00 0.00 0.00 64
20260503235836 17 264 8.0 12.9 0.00 0.00 0.00 64
20260503235634 17 264 9.7 12.9 0.00 0.00 0.00 65
20260503235431 17 277 8.0 12.9 0.00 0.00 0.00 64
20260503235231 17 258 8.0 14.5 0.00 0.00 0.00 66
20260503235029 17 286 8.0 14.5 0.00 0.00 0.00 65
20260503234827 17 274 6.4 14.5 0.00 0.00 0.00 66
20260503234625 17 286 6.4 14.5 0.00 0.00 0.00 65
20260503234423 17 272 12.9 14.5 0.00 0.00 0.00 64
20260503234221 17 254 14.5 11.3 0.00 0.00 0.00 65
20260503234019 17 244 1.6 11.3 0.00 0.00 0.00 65
20260503233818 17 270 6.4 17.7 0.00 0.00 0.00 66
20260503233616 17 253 3.2 17.7 0.00 0.00 0.00 66
20260503233414 17 202 0.0 17.7 0.00 0.00 0.00 65
20260503233212 17 264 17.7 12.9 0.00 0.00 0.00 65
20260503233008 17 262 12.9 12.9 0.00 0.00 0.00 65
20260503232808 17 262 6.4 14.5 0.00 0.00 0.00 64
20260503232606 17 271 9.7 14.5 0.00 0.00 0.00 65